FW0097 Weather Reports


Display with metric or nautical units.
time (UTC)temp
F
wind
direction
speed
MPH
gust
MPH
rain 1hr
in
rain 24hr
in
rain mn
in
humidity
%
barometer
mb
20190119091533 20 20 2.0 4.0 0.00 0.00 0.00 87 1024.0
20190119090018 19 30 2.0 6.0 0.00 0.00 0.00 87 1024.0
20190119084513 19 344 2.0 6.0 0.00 0.00 0.00 88 1023.9
20190119083011 18 36 1.0 6.0 0.00 0.00 0.00 89 1023.9
20190119081523 18 346 0.0 4.0 0.00 0.00 0.00 89 1023.7
20190119080032 17 346 0.0 3.0 0.00 0.00 0.00 89 1023.6
20190119074503 17 345 1.0 4.0 0.00 0.00 0.00 89 1023.5
20190119073220 17 338 3.0 8.0 0.00 0.00 0.00 90 1023.3
20190119071700 17 360 1.0 3.0 0.00 0.00 0.00 91 1023.3
20190119070132 17 360 0.0 1.0 0.00 0.00 0.00 89 1023.2
20190119064707 17 360 0.0 1.0 0.00 0.00 0.00 91 1023.1
20190119063143 17 360 0.0 2.0 0.00 0.00 0.00 90 1023.0
20190119061640 17 360 0.0 1.0 0.00 0.00 0.00 90 1022.8
20190119060138 18 360 1.0 3.0 0.00 0.00 0.00 90 1022.8
20190119054713 17 360 1.0 3.0 0.00 0.00 0.00 90 1022.7
20190119053132 18 355 1.0 3.0 0.00 0.00 0.00 90 1022.8
20190119051601 18 360 1.0 3.0 0.00 0.00 0.00 90 1022.7
20190119050122 18 348 1.0 3.0 0.00 0.00 0.00 90 1022.6
20190119044622 18 348 1.0 3.0 0.00 0.00 0.00 90 1022.5
20190119043102 18 348 1.0 5.0 0.00 0.00 0.00 89 1022.5
20190119041652 19 22 2.0 4.0 0.00 0.00 0.00 89 1022.5
20190119040051 20 25 2.0 6.0 0.00 0.00 0.00 89 1022.5
20190119034644 19 355 0.0 3.0 0.00 0.00 0.00 89 1022.5
20190119033104 19 328 1.0 3.0 0.00 0.00 0.00 89 1022.5
20190119031546 19 328 0.0 2.0 0.00 0.00 0.00 88 1022.5
20190119030057 20 328 0.0 0.0 0.00 0.00 0.00 89 1022.4
20190119024629 20 328 0.0 2.0 0.00 0.00 0.00 87 1022.4
20190119023051 21 329 1.0 3.0 0.00 0.00 0.00 87 1022.4
20190119021530 21 13 0.0 3.0 0.00 0.00 0.00 87 1022.4
20190119020106 21 20 2.0 4.0 0.00 0.00 0.00 88 1022.2
20190119014556 21 24 2.0 3.0 0.00 0.00 0.00 87 1022.2
20190119013039 0 0.0 0.0 0.00 0.00 0.00 1022.4
20190119011539 0 0.0 0.0 0.00 0.00 0.00 1022.6
20190119010010 0 0.0 0.0 0.00 0.00 0.00 1022.4
20190119004513 0 0.0 0.0 0.00 0.00 0.00 1022.3
20190118230114 0 0.0 0.0 0.00 0.00 0.00 1022.4
20190118224548 0 0.0 0.0 0.00 0.00 0.00 1022.5
20190118223030 0 0.0 0.0 0.00 0.00 0.00 1022.4
20190118221544 0 0.0 0.0 0.00 0.00 0.00 1022.2
20190118220023 0 0.0 0.0 0.00 0.00 0.00 1022.0
20190118214523 0 0.0 0.0 0.00 0.00 0.00 1021.8
20190118213026 0 0.0 0.0 0.00 0.00 0.00 1021.6
20190118211519 0 0.0 0.0 0.00 0.00 0.00 1021.5
20190118210153 0 0.0 0.0 0.00 0.00 0.00 1021.4
20190118204653 29 350 0.0 2.0 0.00 0.00 0.00 78 1021.3
20190118203152 29 334 0.0 2.0 0.00 0.00 0.00 78 1021.4
20190118201715 29 333 0.0 2.0 0.00 0.00 0.00 78 1021.4
20190118200208 29 333 0.0 2.0 0.00 0.00 0.00 77 1021.2
20190118194640 29 5 0.0 0.0 0.00 0.00 0.00 77 1021.0
20190118193115 0 0.0 0.0 0.00 0.00 0.00 1020.8
20190118191607 0 0.0 0.0 0.00 0.00 0.00 1020.7
20190118190128 0 0.0 0.0 0.00 0.00 0.00 1020.5
20190118184611 0 0.0 0.0 0.00 0.00 0.00 1020.3
20190118183114 0 0.0 0.0 0.00 0.00 0.00 1020.1
20190118181554 0 0.0 0.0 0.00 0.00 0.00 1020.0
20190118180124 0 0.0 0.0 0.00 0.00 0.00 1019.8
20190118174536 0 0.0 0.0 0.00 0.00 0.00 1019.8
20190118173027 0 0.0 0.0 0.00 0.00 0.00 1019.6
20190118171513 0 0.0 0.0 0.00 0.00 0.00 1019.5
20190118170039 0 0.0 0.0 0.00 0.00 0.00 1019.3
20190118164514 32 313 2.0 7.0 0.00 0.00 0.00 68 1019.0
20190118163004 32 296 2.0 4.0 0.00 0.00 0.00 67 1019.0
20190118161502 33 355 2.0 5.0 0.00 0.00 0.00 67 1018.9
20190118160001 33 321 1.0 5.0 0.00 0.00 0.00 66 1018.8
20190118154839 33 284 0.0 9.0 0.00 0.00 0.00 67 1018.7
20190118153214 33 275 1.0 9.0 0.00 0.00 0.00 67 1018.5
20190118151734 34 252 3.0 9.0 0.00 0.00 0.00 68 1018.4
20190118150215 35 169 0.0 4.0 0.00 0.00 0.00 75 1018.1
20190118144742 34 259 2.0 10.0 0.00 0.00 0.00 80 1017.9
20190118143117 33 150 0.0 5.0 0.00 0.00 0.00 81 1017.8
20190118141633 33 150 0.0 6.0 0.00 0.00 0.00 84 1017.5
20190118140135 33 275 1.0 4.0 0.00 0.00 0.00 86 1017.3
20190118134617 32 267 1.0 11.0 0.00 0.00 0.00 86 1017.3
20190118133150 35 279 5.0 10.0 0.00 0.00 0.00 73 1017.0
20190118131637 35 284 1.0 4.0 0.00 0.00 0.00 72 1016.5
20190118130105 35 215 4.0 10.0 0.00 0.00 0.00 70 1016.3
20190118124558 36 336 2.0 7.0 0.00 0.00 0.00 64 1016.3
20190118123101 36 270 4.0 14.0 0.00 0.00 0.00 63 1016.1
20190118121622 36 239 3.0 11.0 0.00 0.00 0.00 63 1016.0
20190118120053 36 271 1.0 4.0 0.00 0.00 0.00 65 1015.9
20190118114618 36 261 2.0 7.0 0.00 0.00 0.00 66 1015.8
20190118113034 36 298 2.0 10.0 0.00 0.00 0.00 65 1015.7
20190118111553 36 292 2.0 9.0 0.00 0.00 0.00 66 1015.6
20190118110054 36 279 4.0 13.0 0.00 0.00 0.00 67 1015.6
20190118104528 36 260 2.0 12.0 0.00 0.00 0.00 67 1015.5
20190118103031 37 313 4.0 10.0 0.00 0.00 0.00 66 1015.4
20190118101638 37 273 4.0 13.0 0.00 0.00 0.00 67 1015.3
20190118100047 37 296 2.0 8.0 0.00 0.00 0.00 67 1015.2
20190118094529 37 306 3.0 10.0 0.00 0.00 0.00 67 1015.2
20190118093052 37 257 4.0 12.0 0.00 0.00 0.00 67 1015.2